Dewpoint
71 66 64 64 62 62 62 63 64 63 63 61 62 63 64 64 64 64 65 64 64 64
68 64 63 63 62 62 63 62 63 62 63 61 61 64 64 63 64 64 64 65 64 63
66 63 62 62 62 61 61 62 62 62 62 62 62 63 64 63 63 64 63 63 63 64
63 62 61 62 62 61 61 62 62 62 62 62 62 63 63 63 63 64 64 64 64 64
61 62 61 62 63 62 62 62 62 62 63 63 63 63 63 63 64 63 63 63 63 63
62 63 63 63 63 63 62 61 61 63 63 62 62 61 61 63 63 63 63 63 63 62
63 62 64 64 63 63 62 62 62 62 62 61 60 60 61 62 62 62 62 63 63 62
64 64 64 64 64 63 62 62 62 62 61 61 60 59 62 63 62 63 63 63 63 61
65 65 65 65 65 63 62 62 62 61 61 61 60 60 61 63 62 63 63 61 61 59
65 64 64 65 65 63 62 62 61 61 61 61 62 59 59 61 64 62 60 60 60 58
64 64 64 63 62 63 62 61 61 62 62 62 62 58 58 60 63 62 60 59 59 59
65 64 65 63 63 62 63 63 62 63 63 62 62 58 57 59 62 61 60 59 57 56
65 63 63 64 64 63 63 63 64 63 62 60 62 58 58 58 61 59 57 57 57 55
66 66 65 64 63 63 64 63 63 62 60 61 62 62 57 54 59 57 56 55 54 54
Lifted_Index
-7 -7 -6 -5 -3 -2 -0 1 2 2 3 3 4 3 3 3 2 2 2 1 1 2
-7 -7 -6 -3 -1 -1 0 1 2 2 3 3 4 3 3 3 3 2 2 1 1 2
-7 -7 -4 -1 0 1 1 2 2 3 3 3 3 3 3 3 3 2 2 2 1 1
-6 -6 -3 0 1 1 1 2 2 2 2 2 2 2 2 2 2 2 2 2 2 2
-6 -5 -3 0 1 1 1 1 2 2 2 2 2 2 2 2 2 2 2 2 2 2
-5 -5 -3 -1 0 0 0 1 2 1 1 1 2 2 2 2 2 2 2 2 2 2
-6 -5 -3 -2 -0 -0 0 1 1 1 1 1 2 2 2 2 2 2 2 2 2 2
-6 -5 -4 -2 -1 -1 -1 -0 -0 0 0 1 1 2 2 1 1 2 2 2 2 2
-6 -5 -3 -2 -1 -1 -2 -2 -1 -1 -0 0 1 1 1 1 1 1 1 2 2 2
-5 -5 -3 -2 -1 -2 -2 -2 -1 -1 -0 -0 -0 -0 -0 0 0 1 1 1 1 2
-5 -5 -3 -2 -1 -2 -2 -1 -1 -1 -1 -1 -1 -1 -1 -1 -0 1 1 1 1 1
-5 -5 -3 -2 -1 -1 -2 -1 -1 -1 -1 -1 -1 -1 -1 -1 -1 0 1 1 1 2
-5 -4 -3 -2 -1 -2 -2 -2 -1 -1 -1 -0 -0 -1 -1 -1 -1 -0 0 1 2 2
-5 -4 -3 -2 -2 -2 -2 -2 -1 -0 0 1 0 -0 -1 -1 -1 -0 0 1 2 2